Year,Month,Day,Hour,Minute,Value (Times are PST for temperature in C)
2019,03,27,09,32,7.50
2019,03,27,09,33,7.50
2019,03,27,09,34,7.60
2019,03,27,09,35,7.60
2019,03,27,09,36,7.60
2019,03,27,09,37,7.60
2019,03,27,09,38,7.70
2019,03,27,09,39,7.70
2019,03,27,09,40,7.70
2019,03,27,09,41,7.80
2019,03,27,09,42,7.90
2019,03,27,09,43,8.00
2019,03,27,09,44,8.00
2019,03,27,09,45,8.10
2019,03,27,09,46,8.10
2019,03,27,09,47,8.20
2019,03,27,09,48,8.30
2019,03,27,09,49,8.60
2019,03,27,09,50,8.60
2019,03,27,09,51,8.70
2019,03,27,09,52,8.80
2019,03,27,09,53,8.80
2019,03,27,09,54,8.90
2019,03,27,09,55,9.00
2019,03,27,09,56,9.10
2019,03,27,09,57,9.00
2019,03,27,09,58,9.10
2019,03,27,09,59,9.10
2019,03,27,10,00,9.20
2019,03,27,10,01,9.20
2019,03,27,10,02,9.30
2019,03,27,10,03,9.40
2019,03,27,10,04,9.40
2019,03,27,10,05,9.40
2019,03,27,10,06,9.40
2019,03,27,10,07,9.30
2019,03,27,10,08,9.30
2019,03,27,10,09,9.30
2019,03,27,10,10,9.30
2019,03,27,10,11,9.20
2019,03,27,10,12,9.20
2019,03,27,10,13,9.20
2019,03,27,10,14,9.20
2019,03,27,10,15,9.30
2019,03,27,10,16,9.20
2019,03,27,10,17,9.30
2019,03,27,10,18,9.30
2019,03,27,10,19,9.30
2019,03,27,10,20,9.40
2019,03,27,10,21,9.40
2019,03,27,10,22,9.50
2019,03,27,10,23,9.60
2019,03,27,10,24,9.60
2019,03,27,10,25,9.70
2019,03,27,10,26,9.70
2019,03,27,10,27,9.70
2019,03,27,10,28,9.70
2019,03,27,10,29,9.80
2019,03,27,10,30,9.80
2019,03,27,10,31,9.80
2019,03,27,10,32,9.80
2019,03,27,10,33,9.90
2019,03,27,10,34,9.90
2019,03,27,10,35,10.00
2019,03,27,10,36,10.00
2019,03,27,10,37,10.10
2019,03,27,10,38,10.10
2019,03,27,10,39,10.20
2019,03,27,10,40,10.30
2019,03,27,10,41,10.40
2019,03,27,10,42,10.50
2019,03,27,10,43,10.50
2019,03,27,10,44,10.40
2019,03,27,10,45,10.30
2019,03,27,10,46,10.30
2019,03,27,10,47,10.30
2019,03,27,10,48,10.30
2019,03,27,10,49,10.30
2019,03,27,10,50,10.30
2019,03,27,10,51,10.30
2019,03,27,10,52,10.40
2019,03,27,10,53,10.50
2019,03,27,10,54,10.60
2019,03,27,10,55,10.70
2019,03,27,10,56,10.70
2019,03,27,10,57,10.70
2019,03,27,10,58,10.80
2019,03,27,10,59,10.80
2019,03,27,11,00,10.80
2019,03,27,11,01,10.80
2019,03,27,11,02,10.80
2019,03,27,11,03,10.80
2019,03,27,11,04,10.80
2019,03,27,11,05,10.80
2019,03,27,11,06,10.90
2019,03,27,11,07,10.90
2019,03,27,11,08,10.90
2019,03,27,11,09,10.90
2019,03,27,11,10,10.90
2019,03,27,11,11,10.80
2019,03,27,11,12,10.80
2019,03,27,11,13,10.80
2019,03,27,11,14,10.70
2019,03,27,11,15,10.70
2019,03,27,11,16,10.80
2019,03,27,11,17,10.80
2019,03,27,11,18,10.90
2019,03,27,11,19,11.00
2019,03,27,11,20,11.00
2019,03,27,11,21,11.10
2019,03,27,11,22,11.10
2019,03,27,11,23,11.00
2019,03,27,11,24,11.00
2019,03,27,11,25,11.00
2019,03,27,11,26,11.10
2019,03,27,11,27,11.10
2019,03,27,11,28,11.00
2019,03,27,11,29,11.00
2019,03,27,11,30,11.10
2019,03,27,11,31,11.10
2019,03,27,11,32,11.20
2019,03,27,11,33,11.30
2019,03,27,11,34,11.40
2019,03,27,11,35,11.40
2019,03,27,11,36,11.50
2019,03,27,11,37,11.60
2019,03,27,11,38,11.60
2019,03,27,11,39,11.60
2019,03,27,11,40,11.70
2019,03,27,11,41,11.70
2019,03,27,11,42,11.80
2019,03,27,11,43,11.80
2019,03,27,11,44,11.90
2019,03,27,11,45,12.00
2019,03,27,11,46,12.10
2019,03,27,11,47,12.10
2019,03,27,11,48,12.10
2019,03,27,11,49,12.00
2019,03,27,11,50,12.00
2019,03,27,11,51,12.10
2019,03,27,11,52,12.10
2019,03,27,11,53,12.20
2019,03,27,11,54,12.30
2019,03,27,11,55,12.40
2019,03,27,11,56,12.40
2019,03,27,11,57,12.30
2019,03,27,11,58,12.30
2019,03,27,11,59,12.40
2019,03,27,12,00,12.40
2019,03,27,12,01,12.40
2019,03,27,12,02,12.40
2019,03,27,12,03,12.40
2019,03,27,12,04,12.40
2019,03,27,12,05,12.40
2019,03,27,12,06,12.30
2019,03,27,12,07,12.30
2019,03,27,12,08,12.30
2019,03,27,12,09,12.30
2019,03,27,12,10,12.30
2019,03,27,12,11,12.30
2019,03,27,12,12,12.20
2019,03,27,12,13,12.20
2019,03,27,12,14,12.30
2019,03,27,12,15,12.30
2019,03,27,12,16,12.40
2019,03,27,12,17,12.50
2019,03,27,12,18,12.50
2019,03,27,12,19,12.60
2019,03,27,12,20,12.50
2019,03,27,12,21,12.50
2019,03,27,12,22,12.50
2019,03,27,12,23,12.40
2019,03,27,12,24,12.40
2019,03,27,12,25,12.40
2019,03,27,12,26,12.30
2019,03,27,12,27,12.30
2019,03,27,12,28,12.30
2019,03,27,12,29,12.30
2019,03,27,12,30,12.30
2019,03,27,12,31,12.30
2019,03,27,12,32,12.40
2019,03,27,12,33,12.60
2019,03,27,12,34,12.60
2019,03,27,12,35,12.50
2019,03,27,12,36,12.50
2019,03,27,12,37,12.60
2019,03,27,12,38,12.70
2019,03,27,12,39,12.70
2019,03,27,12,40,12.70
2019,03,27,12,41,12.60
2019,03,27,12,42,12.50
2019,03,27,12,43,12.50
2019,03,27,12,44,12.50
2019,03,27,12,45,12.50
2019,03,27,12,46,12.50
2019,03,27,12,47,12.50
2019,03,27,12,48,12.60
2019,03,27,12,49,12.70
2019,03,27,12,50,12.70
2019,03,27,12,51,12.70
2019,03,27,12,52,12.70
2019,03,27,12,53,12.70
2019,03,27,12,54,12.70
2019,03,27,12,55,12.80
2019,03,27,12,56,12.80
2019,03,27,12,57,12.90
2019,03,27,12,58,12.90
2019,03,27,12,59,12.90
2019,03,27,13,00,13.00
2019,03,27,13,01,13.00
2019,03,27,13,02,13.00
2019,03,27,13,03,13.00
2019,03,27,13,04,12.90
2019,03,27,13,05,12.90
2019,03,27,13,06,12.80
2019,03,27,13,07,12.80
2019,03,27,13,08,12.90
2019,03,27,13,09,12.90
2019,03,27,13,10,12.90
2019,03,27,13,11,12.90
2019,03,27,13,12,12.80
2019,03,27,13,13,12.80
2019,03,27,13,14,12.70
2019,03,27,13,15,12.70
2019,03,27,13,16,12.70
2019,03,27,13,17,12.70
2019,03,27,13,18,12.80
2019,03,27,13,19,12.80
2019,03,27,13,20,12.90
2019,03,27,13,21,12.90
2019,03,27,13,22,13.00
2019,03,27,13,23,13.00
2019,03,27,13,24,13.10
2019,03,27,13,25,13.20
2019,03,27,13,26,13.20
2019,03,27,13,27,13.20
2019,03,27,13,28,13.30
2019,03,27,13,29,13.30
2019,03,27,13,30,13.40
2019,03,27,13,31,13.40
2019,03,27,13,32,13.40
2019,03,27,13,33,13.40
2019,03,27,13,34,13.40
2019,03,27,13,35,13.40
2019,03,27,13,36,13.50
2019,03,27,13,37,13.50
2019,03,27,13,38,13.50
2019,03,27,13,39,13.50
2019,03,27,13,40,13.60
2019,03,27,13,41,13.60
2019,03,27,13,42,13.70
2019,03,27,13,43,13.70
2019,03,27,13,44,13.80
2019,03,27,13,45,13.80
2019,03,27,13,46,13.80
2019,03,27,13,47,13.80
2019,03,27,13,48,13.80
2019,03,27,13,49,13.80
2019,03,27,13,50,13.80
2019,03,27,13,51,13.80
2019,03,27,13,52,13.80
2019,03,27,13,53,13.90
2019,03,27,13,54,13.90
2019,03,27,13,55,13.90
2019,03,27,13,56,13.90
2019,03,27,13,57,13.80
2019,03,27,13,58,13.80
2019,03,27,13,59,13.80
2019,03,27,14,00,13.80
2019,03,27,14,01,13.80
2019,03,27,14,02,13.90
2019,03,27,14,03,13.90
2019,03,27,14,04,14.00
2019,03,27,14,05,14.00
2019,03,27,14,06,14.10
2019,03,27,14,07,14.10
2019,03,27,14,08,14.20
2019,03,27,14,09,14.20
2019,03,27,14,10,14.20
2019,03,27,14,11,14.30
2019,03,27,14,12,14.30
2019,03,27,14,13,14.50
2019,03,27,14,14,14.60
2019,03,27,14,15,14.60
2019,03,27,14,16,14.70
2019,03,27,14,17,14.80
2019,03,27,14,18,14.70
2019,03,27,14,19,14.70
2019,03,27,14,20,14.70
2019,03,27,14,21,14.80
2019,03,27,14,22,14.80
2019,03,27,14,23,14.80
2019,03,27,14,24,14.80
2019,03,27,14,25,14.90
2019,03,27,14,26,14.90
2019,03,27,14,27,15.00
2019,03,27,14,28,15.00
2019,03,27,14,29,15.00
2019,03,27,14,30,15.00
2019,03,27,14,31,15.00
2019,03,27,14,32,15.00
2019,03,27,14,33,15.00
2019,03,27,14,34,15.00
2019,03,27,14,35,15.00
2019,03,27,14,36,15.00
2019,03,27,14,37,15.00
2019,03,27,14,38,15.00
2019,03,27,14,39,15.00
2019,03,27,14,40,15.00
2019,03,27,14,41,15.00
2019,03,27,14,42,15.20
2019,03,27,14,43,15.20
2019,03,27,14,44,15.20
2019,03,27,14,45,15.20
2019,03,27,14,46,15.20
2019,03,27,14,47,15.20
2019,03,27,14,48,15.30
2019,03,27,14,49,15.30
2019,03,27,14,50,15.30
2019,03,27,14,51,15.30
2019,03,27,14,52,15.30
2019,03,27,14,53,15.40
2019,03,27,14,54,15.40
2019,03,27,14,55,15.30
2019,03,27,14,56,15.30
2019,03,27,14,57,15.30
2019,03,27,14,58,15.40
2019,03,27,14,59,15.50
2019,03,27,15,00,15.50
2019,03,27,15,01,15.60
2019,03,27,15,02,15.70
2019,03,27,15,03,15.80
2019,03,27,15,04,15.70
2019,03,27,15,05,15.70
2019,03,27,15,06,15.70
2019,03,27,15,07,15.70
2019,03,27,15,08,15.80
2019,03,27,15,09,15.90
2019,03,27,15,10,15.90
2019,03,27,15,11,15.90
2019,03,27,15,12,15.90
2019,03,27,15,13,15.90
2019,03,27,15,14,15.80
2019,03,27,15,15,15.90
2019,03,27,15,16,15.90
2019,03,27,15,17,16.00
2019,03,27,15,18,16.00
2019,03,27,15,19,16.00
2019,03,27,15,20,16.00
2019,03,27,15,21,16.10
2019,03,27,15,22,16.10
2019,03,27,15,23,16.10
2019,03,27,15,24,16.10
2019,03,27,15,25,16.10
2019,03,27,15,26,16.00
2019,03,27,15,27,15.90
2019,03,27,15,28,15.90
2019,03,27,15,29,15.90
2019,03,27,15,30,15.90
2019,03,27,15,31,15.90
2019,03,27,15,32,15.90
2019,03,27,15,33,15.90
2019,03,27,15,34,16.00
2019,03,27,15,35,16.00
2019,03,27,15,36,16.10
2019,03,27,15,37,16.10
2019,03,27,15,38,16.10
2019,03,27,15,39,16.20
2019,03,27,15,40,16.20
2019,03,27,15,41,16.20
2019,03,27,15,42,16.20
2019,03,27,15,43,16.20
2019,03,27,15,44,16.20
2019,03,27,15,45,16.10
2019,03,27,15,46,16.00
2019,03,27,15,47,16.00
2019,03,27,15,48,16.00
2019,03,27,15,49,16.00
2019,03,27,15,50,15.90
2019,03,27,15,51,15.90
2019,03,27,15,52,15.90
2019,03,27,15,53,15.90
2019,03,27,15,54,15.90
2019,03,27,15,55,15.90
2019,03,27,15,56,15.90
2019,03,27,15,57,16.00
2019,03,27,15,58,16.00
2019,03,27,15,59,16.10
2019,03,27,16,00,16.10
2019,03,27,16,01,16.10
2019,03,27,16,02,16.10
2019,03,27,16,03,16.10
2019,03,27,16,04,16.10
2019,03,27,16,05,16.10
2019,03,27,16,06,16.10
2019,03,27,16,07,16.10
2019,03,27,16,08,16.10
2019,03,27,16,09,16.10
2019,03,27,16,10,16.10
2019,03,27,16,11,16.20
2019,03,27,16,12,16.20
2019,03,27,16,13,16.30
2019,03,27,16,14,16.30
2019,03,27,16,15,16.30
2019,03,27,16,16,16.30
2019,03,27,16,17,16.20
2019,03,27,16,18,16.20
2019,03,27,16,19,16.20
2019,03,27,16,20,16.10
2019,03,27,16,21,16.10
2019,03,27,16,22,16.10
2019,03,27,16,23,16.10
2019,03,27,16,24,16.00
2019,03,27,16,25,16.00
2019,03,27,16,26,16.10
2019,03,27,16,27,16.10
2019,03,27,16,28,16.20
2019,03,27,16,29,16.30
2019,03,27,16,30,16.30
2019,03,27,16,31,16.40
2019,03,27,16,32,16.50
2019,03,27,16,33,16.60
2019,03,27,16,34,16.50
2019,03,27,16,35,16.50
2019,03,27,16,36,16.50
2019,03,27,16,37,16.50
2019,03,27,16,38,16.50
2019,03,27,16,39,16.50
2019,03,27,16,40,16.50
2019,03,27,16,41,16.50
2019,03,27,16,42,16.50
2019,03,27,16,43,16.40
2019,03,27,16,44,16.40
2019,03,27,16,45,16.40
2019,03,27,16,46,16.30
2019,03,27,16,47,16.30
2019,03,27,16,48,16.30
2019,03,27,16,49,16.20
2019,03,27,16,50,16.20
2019,03,27,16,51,16.20
2019,03,27,16,52,16.20
2019,03,27,16,53,16.20
2019,03,27,16,54,16.20
2019,03,27,16,55,16.20
2019,03,27,16,56,16.10
2019,03,27,16,57,16.10
2019,03,27,16,58,16.10
2019,03,27,16,59,16.00
2019,03,27,17,00,16.00
2019,03,27,17,01,15.90
2019,03,27,17,02,15.90
2019,03,27,17,03,15.80
2019,03,27,17,04,15.80
2019,03,27,17,05,15.70
2019,03,27,17,06,15.60
2019,03,27,17,07,15.60
2019,03,27,17,08,15.50
2019,03,27,17,09,15.50
2019,03,27,17,10,15.50
2019,03,27,17,11,15.50
2019,03,27,17,12,15.50
2019,03,27,17,13,15.50
2019,03,27,17,14,15.60
2019,03,27,17,15,15.60
2019,03,27,17,16,15.60
2019,03,27,17,17,15.70
2019,03,27,17,18,15.70
2019,03,27,17,19,15.70
2019,03,27,17,20,15.70
2019,03,27,17,21,15.70
2019,03,27,17,22,15.60
2019,03,27,17,23,15.60
2019,03,27,17,24,15.60
2019,03,27,17,25,15.60
2019,03,27,17,26,15.60
2019,03,27,17,27,15.60
2019,03,27,17,28,15.60
2019,03,27,17,29,15.60
2019,03,27,17,30,15.60
2019,03,27,17,31,15.60
2019,03,27,17,32,15.60
2019,03,27,17,33,15.60
2019,03,27,17,34,15.50
2019,03,27,17,35,15.50
2019,03,27,17,36,15.50
2019,03,27,17,37,15.40
2019,03,27,17,38,15.40
2019,03,27,17,39,15.40
2019,03,27,17,40,15.40
2019,03,27,17,41,15.40
2019,03,27,17,42,15.40
2019,03,27,17,43,15.40
2019,03,27,17,44,15.30
2019,03,27,17,45,15.30
2019,03,27,17,46,15.30
2019,03,27,17,47,15.30
2019,03,27,17,48,15.30
2019,03,27,17,49,15.30
2019,03,27,17,50,15.20
2019,03,27,17,51,15.20
2019,03,27,17,52,15.20
2019,03,27,17,53,15.20
2019,03,27,17,54,15.20
2019,03,27,17,55,15.10
2019,03,27,17,56,15.10
2019,03,27,17,57,15.10
2019,03,27,17,58,15.10
2019,03,27,17,59,15.00
2019,03,27,18,00,15.00
2019,03,27,18,01,15.00
2019,03,27,18,02,15.00
2019,03,27,18,03,15.00
2019,03,27,18,04,14.90
2019,03,27,18,05,14.80
2019,03,27,18,06,14.80
2019,03,27,18,07,14.70
2019,03,27,18,08,14.60
2019,03,27,18,09,14.60
2019,03,27,18,10,14.50
2019,03,27,18,11,14.40
2019,03,27,18,12,14.40
2019,03,27,18,13,14.30
2019,03,27,18,14,14.20
2019,03,27,18,15,14.20
2019,03,27,18,16,14.10
2019,03,27,18,17,14.10
2019,03,27,18,18,14.00
2019,03,27,18,19,13.90
2019,03,27,18,20,13.90
2019,03,27,18,21,13.90
2019,03,27,18,22,13.80
2019,03,27,18,23,13.80
2019,03,27,18,24,13.70
2019,03,27,18,25,13.70
2019,03,27,18,26,13.70
2019,03,27,18,27,13.60
2019,03,27,18,28,13.60
2019,03,27,18,29,13.60
2019,03,27,18,30,13.50
2019,03,27,18,31,13.50
2019,03,27,18,32,13.50
2019,03,27,18,33,13.40
2019,03,27,18,34,13.40
2019,03,27,18,35,13.40
2019,03,27,18,36,13.40
2019,03,27,18,37,13.30
2019,03,27,18,38,13.30
2019,03,27,18,39,13.30
2019,03,27,18,40,13.30
2019,03,27,18,41,13.20
2019,03,27,18,42,13.20
2019,03,27,18,43,13.10
2019,03,27,18,44,13.10
2019,03,27,18,45,13.10
2019,03,27,18,46,13.10
2019,03,27,18,47,13.10
2019,03,27,18,48,13.10
2019,03,27,18,49,13.10
2019,03,27,18,50,13.10
2019,03,27,18,51,13.10
2019,03,27,18,52,13.10
2019,03,27,18,53,13.10
2019,03,27,18,54,13.10
